Location: Il Ritiro
(43.4167°N, 13.1333°E)
Time: 06:31:23
(UTC+00:00)

Atlas Centaur 2 - Pass Details

Date: 05 July 2020
Orbit: 459 x 1310 km, 30.4° (Epoch: 05 August)

Event Time Altitude Azimuth Distance (km) Brightness Sun altitude
Rises 20:28:36 0° 246° (WSW) 3,309 5.5 -14.0°
Reaches altitude 10° 20:31:18 10° 234° (SW) 2,520 4.7 -14.3°
Maximum altitude 20:36:17 26° 180° (S) 1,859 3.5 -14.8°
Enters shadow 20:38:48 21° 149° (SSE) 2,171 3.7 -15.1°
